Location: Star Hoppers Observatory
(42.7905°N, 83.6127°W)
Time: 22:14:14
(UTC-04:00)

NOSS 3-1 (A) - Visible Passes

Search period start: 27 August 2015 00:00
Search period end: 06 September 2015 00:00
Orbit: 874 x 1338 km, 63.4° (Epoch: 19 August)

Date Brightness Start Highest point End Pass type
(mag) Time Alt. Az. Time Alt. Az. Time Alt. Az.
27 Aug 5.7 01:42:46 10° WNW 01:47:30 21° NNW 01:52:28 10° NNE visible
27 Aug 6.3 03:38:11 10° NNW 03:41:25 13° N 03:44:48 10° NNE visible
27 Aug 6.2 05:29:43 10° NNW 05:35:17 23° NNE 05:41:24 10° E visible
27 Aug 3.3 23:10:29 77° ESE 23:10:29 77° ESE 23:17:04 10° NE visible
28 Aug 5.3 00:57:47 14° W 01:02:11 27° NNW 01:07:50 10° NNE visible
28 Aug 6.2 02:52:30 10° NW 02:55:48 14° N 02:59:12 10° NNE visible
28 Aug 6.2 04:45:06 10° NNW 04:49:52 19° NNE 04:55:05 10° ENE visible
28 Aug 3.6 22:24:32 41° SSE 22:25:55 48° ESE 22:32:08 10° NE visible
29 Aug 4.8 00:11:37 11° WSW 00:17:01 37° NW 00:23:14 10° NNE visible
29 Aug 6.2 02:06:28 10° NW 02:10:13 15° NNW 02:14:04 10° NNE visible
29 Aug 6.3 04:00:21 10° NNW 04:04:21 16° NNE 04:08:41 10° NE visible
29 Aug 5.6 05:50:58 10° NNW 05:57:39 36° NE 06:04:59 10° ESE visible
29 Aug 4.1 21:36:33 10° S 21:41:30 29° ESE 21:46:57 10° NE visible
29 Aug 4.1 23:26:06 10° SW 23:32:02 54° NW 23:38:36 10° NNE visible
30 Aug 6.0 01:20:21 10° WNW 01:24:43 18° NNW 01:29:15 10° NNE visible
30 Aug 6.4 03:15:21 10° NNW 03:18:46 14° N 03:22:23 10° NE visible
30 Aug 5.9 05:06:25 10° NNW 05:12:27 27° NNE 05:19:04 10° E visible
30 Aug 4.7 20:53:39 10° SE 20:57:11 17° ESE 21:01:10 10° ENE visible
30 Aug 3.5 22:41:12 10° SW 22:47:13 82° NW 22:53:54 10° NE visible
31 Aug 5.7 00:34:22 10° W 00:39:19 23° NNW 00:44:35 10° NNE visible
31 Aug 6.4 02:29:56 10° NNW 02:33:08 13° N 02:36:28 10° NNE visible
31 Aug 6.2 04:21:50 10° NNW 04:27:06 21° NNE 04:32:53 10° ENE visible
31 Aug 4.7 06:12:16 10° NNW 06:19:40 61° NE 06:27:44 10° SE visible
31 Aug 3.4 21:56:42 10° SSW 22:02:35 64° ESE 22:09:05 10° NE visible
31 Aug 5.2 23:48:37 10° W 23:54:04 30° NW 23:59:57 10° NNE visible
01 Sep 6.3 01:44:06 10° NW 01:47:32 14° N 01:51:04 10° NNE visible
01 Sep 6.4 03:37:11 10° NNW 03:41:39 17° NNE 03:46:31 10° ENE visible
01 Sep 5.2 05:27:40 10° NNW 05:34:41 44° NE 05:42:21 10° ESE visible
01 Sep 3.8 21:12:39 10° S 21:18:05 39° ESE 21:24:04 10° NE visible
01 Sep 4.6 23:03:10 10° WSW 23:08:58 43° NW 23:15:21 10° NNE visible
02 Sep 6.2 00:58:00 10° NW 01:01:59 16° NNW 01:06:05 10° NNE visible
02 Sep 6.4 02:52:21 10° NNW 02:56:05 15° NNE 03:00:07 10° NE visible
02 Sep 5.6 04:43:07 10° NNW 04:49:34 32° NE 04:56:38 10° E visible
02 Sep 4.4 20:29:12 10° SSE 20:33:44 24° ESE 20:38:42 10° ENE visible
02 Sep 3.9 22:18:04 10° SW 22:24:03 63° NW 22:30:42 10° NNE visible
03 Sep 5.9 00:11:55 10° WNW 00:16:31 20° NNW 00:21:20 10° NNE visible
03 Sep 6.5 02:07:13 10° NNW 02:10:29 14° N 02:13:57 10° NNE visible
03 Sep 6.0 03:58:33 10° NNW 04:04:18 25° NNE 04:10:36 10° E visible
03 Sep 4.3 05:49:01 10° NNW 05:56:33 75° NE 06:04:45 10° SE visible
03 Sep 3.4 21:33:19 10° SSW 21:39:18 85° SE 21:45:57 10° NE visible
03 Sep 5.6 23:26:01 10° W 23:31:10 25° NNW 23:36:41 10° NNE visible
04 Sep 6.4 01:21:38 10° NNW 01:24:52 14° N 01:28:13 10° NNE visible
04 Sep 6.2 03:13:57 10° NNW 03:18:55 20° NNE 03:24:20 10° ENE visible
04 Sep 4.8 05:04:23 10° NNW 05:11:39 54° NE 05:19:36 10° ESE visible
04 Sep 3.6 20:48:59 10° SSW 20:54:44 53° ESE 21:01:04 10° NE visible
04 Sep 5.1 22:40:22 10° WSW 22:45:58 34° NW 22:52:05 10° NNE visible
05 Sep 6.3 00:35:39 10° NW 00:39:16 15° NNW 00:43:00 10° NNE visible
05 Sep 6.3 02:29:14 10° NNW 02:33:24 16° NNE 02:37:56 10° NE visible
05 Sep 5.3 04:19:48 10° NNW 04:26:37 39° NE 04:34:05 10° ESE visible
05 Sep 4.1 06:10:35 10° NW 06:18:05 62° WSW 06:26:08 10° SSE visible
05 Sep 4.4 21:55:03 10° WSW 22:00:56 49° NW 22:07:27 10° NNE visible
05 Sep 6.1 23:49:32 10° WNW 23:53:45 17° NNW 23:58:08 10° NNE visible
